This demonstration page uses our WeatherBlox Daily Observations layout. Learn more.

Left ArrowRight Arrow

36.17497, -115.13722

Hourly Observations for August 27, 2019

Temp ( °F °C ) Dew Point ( °F °C ) Humidity (%) Winds ( mph kmh ) Pressure ( in mb ) Visibility ( mi km ) Precip ( " mm )
12:53 am 00:53 Clear 88 31.1 42 5.6 20 20 W 5 7 29.77 1008 10 16 0.00 0.00
1:53 am 01:53 Clear 87 30.6 43 6.1 21 21 Calm 29.76 1008 10 16 0.00 0.00
2:53 am 02:53 Clear 86 30 43 6.1 22 22 WNW 6 9 29.76 1008 10 16 0.00 0.00
3:53 am 03:53 Clear 84 28.9 43 6.1 24 24 N 5 7 29.77 1008 10 16 0.00 0.00
4:53 am 04:53 Clear 84 28.9 42 5.6 23 23 N 6 9 29.78 1009 10 16 0.00 0.00
5:53 am 05:53 Clear 83 28.3 43 6.1 24 24 NW 6 9 29.80 1009 10 16 0.00 0.00
6:53 am 06:53 Sunny 84 28.9 43 6.1 24 24 NNW 8 13 29.82 1010 10 16 0.00 0.00
7:53 am 07:53 Sunny 90 32.2 44 6.7 20 20 Calm 29.84 1011 10 16 0.00 0.00
8:53 am 08:53 Sunny 93 33.9 42 5.6 17 17 ESE 5 7 29.85 1011 10 16 0.00 0.00
9:53 am 09:53 Sunny 97 36.1 41 5 14 14 E 9 15 29.85 1011 10 16 0.00 0.00
10:53 am 10:53 Sunny 99 37.2 44 6.7 15 15 E 9 15 29.85 1011 10 16 0.00 0.00
11:53 am 11:53 Sunny 100 37.8 48 8.9 17 17 SE 9 15 29.84 1010 10 16 0.00 0.00
12:53 pm 12:53 Sunny 103 39.4 48 8.9 16 16 undefined N/A 29.81 1010 10 16 0.00 0.00
1:53 pm 13:53 Sunny 105 40.6 48 8.9 15 15 VRB 6 9 29.79 1009 10 16 0.00 0.00
2:53 pm 14:53 Sunny 105 40.6 48 8.9 15 15 VRB 6 9 29.76 1008 10 16 0.00 0.00
3:53 pm 15:53 Sunny 106 41.1 49 9.4 15 15 VRB 7 11 29.75 1007 10 16 0.00 0.00
4:53 pm 16:53 Sunny 106 41.1 49 9.4 15 15 VRB 3 6 29.73 1007 10 16 0.00 0.00
5:53 pm 17:53 Sunny 105 40.6 50 10 16 16 SSE 9 15 29.72 1007 10 16 0.00 0.00
6:53 pm 18:53 Sunny 104 40 50 10 16 16 ESE 6 9 29.72 1007 10 16 0.00 0.00
7:53 pm 19:53 Clear 102 38.9 51 10.6 18 18 SSE 3 6 29.73 1007 10 16 0.00 0.00
8:53 pm 20:53 Clear 99 37.2 49 9.4 18 18 ESE 5 7 29.75 1008 10 16 0.00 0.00
9:53 pm 21:53 Clear 97 36.1 49 9.4 20 20 Calm 29.75 1008 10 16 0.00 0.00
10:53 pm 22:53 Clear 96 35.6 53 11.7 23 23 W 5 7 29.76 1008 10 16 0.00 0.00
11:53 pm 23:53 Clear 94 34.4 53 11.7 25 25 SW 5 7 29.77 1008 10 16 0.00 0.00

Powered by AerisWeather